Location: ??
(34.9170°N, 135.5016°E)
Time: 00:29:52
(UTC+00:00)

RS-15 - Pass Details

Date: 25 April 2021
Orbit: 1888 x 2157 km, 64.8° (Epoch: 12 May)

Event Time Altitude Azimuth Distance (km) Brightness Sun altitude
Rises 09:38:35 0° 230° (SW) 5,269 10.8 -0.9°
Reaches altitude 10° 09:41:58 10° 236° (SW) 4,291 10.4 -1.6°
Maximum altitude 09:52:28 49° 309° (NW) 2,401 9.1 -3.6°
Drops below altitude 10° 10:03:32 10° 22° (NNE) 4,487 9.9 -5.7°
Sets 10:07:13 0° 28° (NNE) 5,527 10.3 -6.4°
